Regional Weather Roundup
Issued by NWS

Home | Current Version | Previous Version | Graphics & Text | Print | Product List | Glossary On
Versions: 1 2 3 4 5 6 7 8 9 10 11 12 13 14 15 16 17 18 19 20 21 22 23 24 25 26 27
000
ASUS45 KGTF 260510
RWRMT
MONTANA HOURLY WEATHER ROUNDUP
NATIONAL WEATHER SERVICE GREAT FALLS MT
1100 PM MDT SAT APR 25 2015

NOTE: "FAIR" INDICATES FEW OR NO CLOUDS BELOW 12000 FEET WITH NO
SIGNIFICANT WEATHER AND/OR OBSTRUCTIONS TO VISIBILITY.

MTZ001>007-043-260600-
WEST OF THE DIVIDE

CITY           SKY/WX    TMP DP  RH WIND       PRES   REMARKS
MISSOULA       CLOUDY    43  30  60 NW10      29.89R
BUTTE          CLOUDY    40  26  57 VRB5      29.84R
DEER LODGE       N/A     41  28  60 N8        29.89R
EUREKA           N/A     45  34  65 W7        29.95R
HAMILTON         N/A     43  32  65 NW13      29.87R
LIBBY            N/A     37  30  75 SE7       29.95R
$$

MTZ008-052>055-260600-
SOUTHWEST MONTANA

CITY           SKY/WX    TMP DP  RH WIND       PRES   REMARKS
BOZEMAN        CLOUDY    43  35  73 VRB3      29.83S
DILLON         CLOUDY    40  34  79 N16       29.78F
$$

MTZ009-010-012-014-046-048-049-054-260600-
EAST SLOPES AND CENTRAL MONTANA

CITY           SKY/WX    TMP DP  RH WIND       PRES   REMARKS
CUT BANK       PTCLDY    30  25  81 N14       29.98R WCI  19
GREAT FALLS    CLOUDY    39  28  64 NE16      29.94R WCI  30
MALMSTROM AFB  PTCLDY    36  30  78 NE10      29.94R WCI  29
HELENA         CLOUDY    43  32  65 N8        29.88R
$$

MTZ011-013-016-021-045-047-050-051-260600-
NORTH CENTRAL MONTANA

CITY           SKY/WX    TMP DP  RH WIND       PRES   REMARKS
HAVRE          CLOUDY    39  30  70 NW10      29.96R
LEWISTOWN      MOCLDY    37  31  78 CALM      29.90R
CHINOOK          N/A     39  30  70 NW8       29.95R
FORT BENTON      N/A     36  28  75 N5        29.98R
$$

MTZ017>020-022>042-056>058-061-062-260600-
EASTERN PLAINS

CITY           SKY/WX    TMP DP  RH WIND       PRES   REMARKS
BAKER          MOCLDY    38  37  97 W7        29.91R
BILLINGS       CLOUDY    44  36  73 SE6       29.89R
JORDAN           N/A     40  38  93 CALM      29.90R
LIVINGSTON     CLOUDY    43  35  73 E9        29.84S
MILES CITY     CLOUDY    46  42  86 S5        29.90S
SIDNEY         CLOUDY    45  41  87 SW6       29.89R
WOLF POINT     CLEAR     39  36  89 W9        29.89R
BIG TIMBER       N/A     43  37  81 E5        29.88R
FORSYTH          N/A     41  39  93 CALM      29.90S
PLENTYWOOD       N/A     39  37  93 W13       29.85R WCI  32
POPLAR           N/A     37  37 100 W3        29.89R
$$

REGIONAL REPORTS...DAKOTAS

CITY           SKY/WX    TMP DP  RH WIND       PRES   REMARKS
WILLISTON      CLOUDY    46  44  93 SW9       29.85R
MINOT          CLOUDY    48  41  76 SE12      29.89F
DICKINSON      LGT RAIN  44  42  93 W10       29.87R
BEACH          CLOUDY    41  41 100 W7        29.91R
CROSBY         CLOUDY    46  46 100 S15       29.84R
WATFORD CITY   CLOUDY    45  45 100 SW8       29.85R
BISMARCK       CLOUDY    48  43  82 SE8       29.93R
GRAND FORKS    CLEAR     46  33  60 SE9       29.98R
FARGO          CLEAR     47  30  51 SE8       29.98R
BUFFALO SD       N/A     43  41  93 NW3       29.85R
RAPID CITY     LGT RAIN  46  42  86 N16       29.86F
$$

REGIONAL REPORTS...WYOMING/IDAHO/WASHINGTON

CITY           SKY/WX    TMP DP  RH WIND       PRES   REMARKS
GILLETTE       CLOUDY    41  35  79 N15       29.89F
SHERIDAN       CLOUDY    42  35  76 CALM      29.91R
BUFFALO WY     CLOUDY    40  33  76 NW5       29.92R
CODY           CLOUDY    43  34  70 NW8       29.85F
YELLOWSTONE LA   N/A     32  26  78 CALM      29.84S
IDAHO FALLS    CLOUDY    50  30  46 E7        29.74S
SALMON         CLOUDY    41  37  87 SW6       29.83R
BOISE          PTCLDY    46  31  55 W13       29.89R
SPOKANE        PTCLDY    42  33  70 E3        29.95R
$$

REGIONAL REPORTS...ALBERTA

CITY           SKY/WX    TMP DP  RH WIND       PRES   REMARKS
EDMONTON       CLEAR     32  25  74 SW8       30.07R WCI  25
CALGARY        CLOUDY    28  23  80 N13       30.04S WCI  18
LETHBRIDGE     CLOUDY    34  27  75 NW20      30.04R WCI  22
MEDICINE HAT   CLOUDY    34  32  93 NW10      30.00R FOG     WCI  26
$$

REGIONAL REPORTS...SASKATCHEWAN

CITY           SKY/WX    TMP DP  RH WIND       PRES   REMARKS
SWIFT CURRENT  LGT SNOW  30  30 100 NW17G24   29.85S WCI  18
REGINA         LGT RAIN  46  46 100 SE17G24   29.77S
SASKATOON      LGT SNOW  32  30  93 NE21G28   29.93F WCI  20
$$



USA.gov is the U.S. government's official web portal to all federal, state and local government web resources and services.